Home > Weather > Villavicencio > Past weeks

Flag for Colombia Past Weather in Villavicencio, Colombia — Yesterday and Last 2 Weeks

Now
52 °F

Scattered showers. Passing clouds.


Feels Like: 49 °F
Forecast: 70 / 91 °F
Wind: 8 mph from Southeast

Location: Bogota / Eldorado

Current Time: Aug 27, 2016 at 9:28:29 PM

Latest Report: Aug 27, 2016 at 9:00 PM


Visibility: N/A

Pressure: 30.36 "Hg

Humidity: 82%

Dew Point: 46 °F

Location of VillavicencioLocation

Past Weather in Villavicencio — Graph

°F

Villavicencio Temperature Yesterday

Maximum temperature yesterday: 66 °F (at 1:00 PM)
Minimum temperature yesterday: 48 °F (at 11:00 PM)
Average temperature yesterday: 57 °F

High & Low Weather Summary for the Past Weeks

 TemperatureHumidityPressure
High68 °F (Aug 17, 2:00 PM)100% (Aug 24, 6:00 AM)30.45 "Hg (Aug 24, 6:00 AM)
Low41 °F (Aug 20, 6:00 AM)32% (Aug 20, 4:00 PM)30.25 "Hg (Aug 25, 4:00 PM)
Average57 °F71%30.34 "Hg
* Reported Aug 12 8:00 PM — Aug 27 8:00 PM, Villavicencio, Weather by CustomWeather, © 2016

Note: Actual official high and low records may vary slightly from our data, if they occured in-between our weather recording intervals... More about our weather records

Advertising

Villavicencio Weather History for the Previous 24 Hours

Scroll right to see more
 ConditionsComfort  
Time TempWeatherWind HumidityBarometerVisibility
8:00 PM
Sat, Aug 27
57 °FPassing clouds.9 mph72%30.34 "HgN/A
7:00 PM59 °FPassing clouds.7 mph63%30.32 "HgN/A
6:00 PM61 °FScattered clouds.5 mph52%30.28 "HgN/A
5:00 PM61 °FBroken clouds.2 mph72%30.26 "HgN/A
4:00 PM59 °FBroken clouds.7 mph77%30.27 "HgN/A
3:00 PM59 °FLight rain. Partly sunny.7 mph72%30.29 "HgN/A
2:00 PM63 °FPartly sunny.6 mph56%30.30 "HgN/A
1:00 PM64 °FScattered showers. Partly sunny.8 mph46%30.33 "HgN/A
12:00 PM64 °FPartly sunny.6 mph52%30.36 "HgN/A
11:00 AM63 °FPartly sunny.2 mph56%30.38 "HgN/A
10:00 AM63 °FBroken clouds.2 mph56%30.39 "Hg5 mi
9:00 AM57 °FBroken clouds.2 mph67%30.40 "Hg5 mi
8:00 AM55 °FScattered clouds.3 mph72%30.38 "HgN/A
7:00 AM50 °FPartly sunny.2 mph88%30.37 "HgN/A
6:00 AM50 °FFog.2 mph88%30.36 "HgN/A
5:00 AM48 °FPassing clouds.3 mph87%30.35 "HgN/A
4:00 AM50 °FPassing clouds.2 mph82%30.33 "HgN/A
3:00 AM48 °FPassing clouds.3 mph87%30.34 "HgN/A
2:00 AM48 °FPassing clouds.N/A87%30.35 "HgN/A
1:00 AM48 °FPassing clouds.3 mph87%30.36 "HgN/A
12:00 AM48 °FPassing clouds.5 mph87%30.37 "HgN/A
11:00 PM
Fri, Aug 26
48 °FPassing clouds.5 mph87%30.39 "HgN/A
10:00 PM50 °FPassing clouds.3 mph76%30.39 "HgN/A
9:00 PM52 °FPassing clouds.2 mph77%30.37 "HgN/A
Weather by CustomWeather, © 2016

See weather overviewHow to use our weather pages